GAF865 EGVN-ENZV

Flight info

Callsign GAF865
Flight time 1h 26m
Altitude 32000
Route NAXAT SWB NOKIN UP16 RIBEL TIPTA ROBEM NIVUN UNBUD
Aircraft A21N/M-SDE2E3FGHIRWXY/LB1

Departure

Time 2026-05-08 10:51
Airport RAF Brize Norton (EGVN)

Arrival

Time 2026-05-08 12:17
Airport Stavanger Airport, Sola (ENZV)
Time Latitude Longitude Altitude Speed Heading
2026-05-08 10:30 51.75478 -1.57999 284 ft 0 kts 297°
2026-05-08 10:42 51.75478 -1.57998 282 ft 1 kts 297°
2026-05-08 10:42 51.75466 -1.57964 281 ft 4 kts 297°
2026-05-08 10:42 51.75454 -1.57926 290 ft 4 kts 297°
2026-05-08 10:43 51.75441 -1.57888 290 ft 4 kts 297°
2026-05-08 10:43 51.75431 -1.57856 282 ft 4 kts 284°
2026-05-08 10:43 51.75433 -1.57819 283 ft 4 kts 234°
2026-05-08 10:43 51.75452 -1.57791 285 ft 4 kts 211°
2026-05-08 10:44 51.75462 -1.57781 284 ft 2 kts 208°
2026-05-08 10:45 51.75457 -1.57786 287 ft 3 kts 208°
2026-05-08 10:45 51.75414 -1.57823 284 ft 11 kts 208°
2026-05-08 10:45 51.75328 -1.57897 281 ft 17 kts 208°
2026-05-08 10:46 51.75209 -1.58000 283 ft 20 kts 208°
2026-05-08 10:46 51.75076 -1.58114 284 ft 23 kts 207°
2026-05-08 10:46 51.74926 -1.58243 286 ft 26 kts 208°
2026-05-08 10:46 51.74832 -1.58324 286 ft 16 kts 208°
2026-05-08 10:47 51.74727 -1.58413 288 ft 17 kts 208°
2026-05-08 10:47 51.74662 -1.58492 288 ft 13 kts 239°
2026-05-08 10:47 51.74625 -1.58650 291 ft 17 kts 254°
2026-05-08 10:47 51.74589 -1.58850 295 ft 20 kts 253°
2026-05-08 10:48 51.74549 -1.59066 295 ft 19 kts 253°
2026-05-08 10:48 51.74516 -1.59244 297 ft 17 kts 253°
2026-05-08 10:48 51.74486 -1.59410 298 ft 15 kts 253°
2026-05-08 10:48 51.74454 -1.59582 297 ft 17 kts 253°
2026-05-08 10:49 51.74430 -1.59707 302 ft 12 kts 260°
2026-05-08 10:49 51.74440 -1.59863 301 ft 16 kts 294°
2026-05-08 10:49 51.74484 -1.59995 301 ft 11 kts 298°
2026-05-08 10:49 51.74491 -1.60132 303 ft 15 kts 258°
2026-05-08 10:50 51.74520 -1.60293 303 ft 9 kts 321°
2026-05-08 10:50 51.74583 -1.60361 306 ft 13 kts 350°
2026-05-08 10:50 51.74628 -1.60311 303 ft 1 kts 74°
2026-05-08 10:50 51.74658 -1.60142 301 ft 58 kts 74°
2026-05-08 10:51 51.74866 -1.59013 298 ft 145 kts 73°
2026-05-08 10:51 51.75206 -1.57250 787 ft 168 kts 75°
2026-05-08 10:51 51.75541 -1.55480 1911 ft 168 kts 78°
2026-05-08 10:51 51.75986 -1.53531 2554 ft 208 kts 60°
2026-05-08 10:52 51.77217 -1.51915 3279 ft 252 kts 25°
2026-05-08 10:52 51.79018 -1.51602 4333 ft 272 kts 351°
2026-05-08 10:52 51.80744 -1.52860 5612 ft 279 kts 320°
2026-05-08 10:52 51.82029 -1.55219 6723 ft 282 kts 307°
2026-05-08 10:53 51.83204 -1.57762 7415 ft 281 kts 292°
2026-05-08 10:53 51.83588 -1.60801 7943 ft 275 kts 264°
2026-05-08 10:53 51.83266 -1.63825 9094 ft 275 kts 253°
2026-05-08 10:53 51.82816 -1.66862 10430 ft 283 kts 254°
2026-05-08 10:54 51.82349 -1.70120 11090 ft 314 kts 255°
2026-05-08 10:54 51.81853 -1.73751 11538 ft 345 kts 256°
2026-05-08 10:54 51.81338 -1.77687 12100 ft 367 kts 256°
2026-05-08 10:54 51.80810 -1.81789 12997 ft 376 kts 257°
2026-05-08 10:55 51.80277 -1.85954 13969 ft 381 kts 257°
2026-05-08 10:55 51.79797 -1.90134 14781 ft 386 kts 261°
2026-05-08 10:55 51.79798 -1.94504 15578 ft 394 kts 275°
2026-05-08 10:55 51.80517 -1.98816 16338 ft 403 kts 290°
2026-05-08 10:56 51.81953 -2.02746 17077 ft 411 kts 305°
2026-05-08 10:56 51.83776 -2.06349 17816 ft 417 kts 308°
2026-05-08 10:56 51.85656 -2.09950 18510 ft 422 kts 308°
2026-05-08 10:56 51.87626 -2.13508 19152 ft 426 kts 314°
2026-05-08 10:57 51.89951 -2.16523 19819 ft 431 kts 325°
2026-05-08 10:57 51.92639 -2.18727 20504 ft 436 kts 337°
2026-05-08 10:57 51.98374 -2.22099 21942 ft 441 kts 338°
2026-05-08 10:58 52.01262 -2.23819 22682 ft 444 kts 338°
2026-05-08 10:58 52.04132 -2.25516 23407 ft 447 kts 338°
2026-05-08 10:58 52.07065 -2.27242 24048 ft 450 kts 338°
2026-05-08 10:58 52.10025 -2.28991 24675 ft 453 kts 338°
2026-05-08 10:59 52.12995 -2.30759 25301 ft 455 kts 338°
2026-05-08 10:59 52.15986 -2.32538 25896 ft 458 kts 338°
2026-05-08 10:59 52.18979 -2.34329 26585 ft 458 kts 338°
2026-05-08 10:59 52.21961 -2.36110 27409 ft 455 kts 338°
2026-05-08 11:00 52.24927 -2.37884 28210 ft 451 kts 337°
2026-05-08 11:00 52.27854 -2.39624 29030 ft 448 kts 337°
2026-05-08 11:00 52.30778 -2.41361 29839 ft 445 kts 337°
2026-05-08 11:00 52.33678 -2.43095 30555 ft 442 kts 336°
2026-05-08 11:01 52.36562 -2.44824 31233 ft 439 kts 336°
2026-05-08 11:01 52.39389 -2.46525 31783 ft 439 kts 336°
2026-05-08 11:01 52.42253 -2.48252 32021 ft 436 kts 336°
2026-05-08 11:01 52.45103 -2.49966 32081 ft 436 kts 335°
2026-05-08 11:02 52.53646 -2.55141 32092 ft 437 kts 335°
2026-05-08 11:03 52.59359 -2.58604 32082 ft 437 kts 335°
2026-05-08 11:03 52.65066 -2.62077 32078 ft 437 kts 335°
2026-05-08 11:04 52.70774 -2.65557 32076 ft 437 kts 335°
2026-05-08 11:04 52.76476 -2.69051 32087 ft 437 kts 335°
2026-05-08 11:05 52.82181 -2.72573 32086 ft 438 kts 335°
2026-05-08 11:05 52.87863 -2.76051 32079 ft 438 kts 335°
2026-05-08 11:06 52.93574 -2.79562 32083 ft 438 kts 335°
2026-05-08 11:06 52.99292 -2.83098 32101 ft 438 kts 334°
2026-05-08 11:07 53.05105 -2.86224 32083 ft 445 kts 344°
2026-05-08 11:07 53.08216 -2.86620 32083 ft 454 kts 356°
2026-05-08 11:07 53.11372 -2.85906 32082 ft 463 kts
2026-05-08 11:08 53.17484 -2.82261 32086 ft 467 kts 16°
2026-05-08 11:08 53.23538 -2.78427 32099 ft 467 kts 15°
2026-05-08 11:09 53.29641 -2.74638 32100 ft 468 kts 15°
2026-05-08 11:09 53.35761 -2.70885 32102 ft 468 kts 15°
2026-05-08 11:10 53.41865 -2.67071 32107 ft 468 kts 15°
2026-05-08 11:10 53.47968 -2.63215 32102 ft 468 kts 15°
2026-05-08 11:11 53.54035 -2.59390 32100 ft 468 kts 15°
2026-05-08 11:11 53.60105 -2.55553 32100 ft 464 kts 15°
2026-05-08 11:12 53.66153 -2.51721 32103 ft 464 kts 16°
2026-05-08 11:12 53.72196 -2.47884 32119 ft 464 kts 15°
2026-05-08 11:13 53.78271 -2.44001 32102 ft 467 kts 15°
2026-05-08 11:13 53.84310 -2.40132 32096 ft 467 kts 15°
2026-05-08 11:14 53.90397 -2.36232 32093 ft 467 kts 15°
2026-05-08 11:14 53.96463 -2.32300 32095 ft 467 kts 16°
2026-05-08 11:15 54.02509 -2.28186 32094 ft 471 kts 21°
2026-05-08 11:15 54.08397 -2.23210 32090 ft 472 kts 21°
2026-05-08 11:16 54.14282 -2.18208 32091 ft 472 kts 21°
2026-05-08 11:16 54.20157 -2.13199 32090 ft 472 kts 21°
2026-05-08 11:17 54.26014 -2.08221 32093 ft 469 kts 21°
2026-05-08 11:17 54.31825 -2.03251 32080 ft 470 kts 21°
2026-05-08 11:18 54.37691 -1.98242 32090 ft 470 kts 22°
2026-05-08 11:18 54.43520 -1.93209 32072 ft 467 kts 22°
2026-05-08 11:19 54.49305 -1.88229 32083 ft 469 kts 21°
2026-05-08 11:19 54.55172 -1.83158 32096 ft 472 kts 22°
2026-05-08 11:20 54.61047 -1.78041 32092 ft 472 kts 22°
2026-05-08 11:20 54.66916 -1.72920 32093 ft 472 kts 22°
2026-05-08 11:21 54.72741 -1.67826 32086 ft 472 kts 22°
2026-05-08 11:21 54.78576 -1.62699 32095 ft 467 kts 22°
2026-05-08 11:22 54.84381 -1.57585 32082 ft 471 kts 22°
2026-05-08 11:22 54.90233 -1.52381 32080 ft 472 kts 22°
2026-05-08 11:23 54.96090 -1.47161 32082 ft 472 kts 22°
2026-05-08 11:23 55.01928 -1.41939 32099 ft 473 kts 22°
2026-05-08 11:24 55.07801 -1.36675 32087 ft 474 kts 22°
2026-05-08 11:24 55.13629 -1.31439 32094 ft 473 kts 22°
2026-05-08 11:25 55.19448 -1.26176 32097 ft 466 kts 22°
2026-05-08 11:25 55.25264 -1.20883 32104 ft 474 kts 23°
2026-05-08 11:26 55.31136 -1.15512 32114 ft 477 kts 22°
2026-05-08 11:26 55.37000 -1.10208 32091 ft 477 kts 22°
2026-05-08 11:27 55.42867 -1.04844 32104 ft 475 kts 24°
2026-05-08 11:27 55.48085 -0.97637 32109 ft 485 kts 47°
2026-05-08 11:28 55.52220 -0.88280 32134 ft 480 kts 49°
2026-05-08 11:28 55.56383 -0.78915 32112 ft 489 kts 49°
2026-05-08 11:29 55.60614 -0.69488 32106 ft 489 kts 49°
2026-05-08 11:29 55.64840 -0.60045 32108 ft 489 kts 49°
2026-05-08 11:30 55.69057 -0.50593 32105 ft 489 kts 49°
2026-05-08 11:30 55.73258 -0.41131 32106 ft 485 kts 49°
2026-05-08 11:31 55.76703 -0.33327 32119 ft 487 kts 49°
2026-05-08 11:31 55.80898 -0.23820 32132 ft 491 kts 49°
2026-05-08 11:32 55.85796 -0.12661 32117 ft 492 kts 49°
2026-05-08 11:32 55.89318 -0.04599 32115 ft 492 kts 49°
2026-05-08 11:33 55.93473 0.04943 32113 ft 487 kts 50°
2026-05-08 11:33 55.97586 0.14425 32113 ft 481 kts 50°
2026-05-08 11:34 56.01719 0.23986 32140 ft 487 kts 50°
2026-05-08 11:34 56.05855 0.33607 32137 ft 487 kts 50°
2026-05-08 11:35 56.09985 0.43225 32115 ft 487 kts 50°
2026-05-08 11:35 56.14109 0.52883 32119 ft 487 kts 50°
2026-05-08 11:36 56.18209 0.62518 32123 ft 483 kts 50°
2026-05-08 11:36 56.22225 0.71995 32126 ft 479 kts 50°
2026-05-08 11:37 56.26281 0.81621 32130 ft 484 kts 51°
2026-05-08 11:37 56.30348 0.91280 32147 ft 484 kts 50°
2026-05-08 11:38 56.34419 1.00996 32132 ft 486 kts 51°
2026-05-08 11:38 56.38486 1.10752 32132 ft 486 kts 51°
2026-05-08 11:39 56.42536 1.20503 32147 ft 483 kts 51°
2026-05-08 11:39 56.46523 1.30148 32141 ft 477 kts 51°
2026-05-08 11:40 56.50513 1.39897 32143 ft 483 kts 51°
2026-05-08 11:40 56.54514 1.49668 32149 ft 483 kts 51°
2026-05-08 11:41 56.58521 1.59474 32148 ft 485 kts 52°
2026-05-08 11:41 56.62535 1.69332 32149 ft 485 kts 52°
2026-05-08 11:42 56.66520 1.79114 32141 ft 482 kts 52°
2026-05-08 11:42 56.70462 1.88850 32145 ft 475 kts 52°
2026-05-08 11:43 56.74402 1.98701 32164 ft 482 kts 53°
2026-05-08 11:43 56.78357 2.08586 32158 ft 483 kts 53°
2026-05-08 11:44 56.82311 2.18488 32153 ft 482 kts 53°
2026-05-08 11:44 56.86258 2.28412 32149 ft 483 kts 53°
2026-05-08 11:45 56.90198 2.38380 32138 ft 480 kts 54°
2026-05-08 11:45 56.94073 2.48224 32135 ft 472 kts 54°
2026-05-08 11:46 56.97926 2.58049 32138 ft 480 kts 54°
2026-05-08 11:46 57.01816 2.68003 32137 ft 481 kts 54°
2026-05-08 11:47 57.05714 2.78007 32133 ft 481 kts 54°
2026-05-08 11:47 57.09612 2.88013 32160 ft 482 kts 54°
2026-05-08 11:48 57.13495 2.98034 32148 ft 477 kts 54°
2026-05-08 11:48 57.17300 3.07924 32165 ft 477 kts 54°
2026-05-08 11:49 57.21135 3.17939 32182 ft 478 kts 54°
2026-05-08 11:49 57.24962 3.27976 32177 ft 478 kts 55°
2026-05-08 11:50 57.28784 3.38043 32178 ft 478 kts 55°
2026-05-08 11:50 57.32597 3.48132 32185 ft 478 kts 55°
2026-05-08 11:51 57.36345 3.58083 32171 ft 473 kts 56°
2026-05-08 11:51 57.40123 3.68155 32198 ft 475 kts 56°
2026-05-08 11:52 57.43887 3.78239 32193 ft 475 kts 56°
2026-05-08 11:52 57.47645 3.88347 32192 ft 475 kts 56°
2026-05-08 11:53 57.51390 3.98466 32197 ft 475 kts 56°
2026-05-08 11:53 57.55113 4.08561 32191 ft 468 kts 56°
2026-05-08 11:54 57.59312 4.17922 32213 ft 476 kts 44°
2026-05-08 11:54 57.64024 4.26476 32195 ft 474 kts 44°
2026-05-08 11:55 57.68741 4.35074 32206 ft 473 kts 45°
2026-05-08 11:55 57.73450 4.43709 32202 ft 474 kts 45°
2026-05-08 11:56 57.78141 4.52344 32202 ft 471 kts 45°
2026-05-08 11:56 57.82777 4.60922 32198 ft 472 kts 45°
2026-05-08 11:57 57.87468 4.69628 32211 ft 476 kts 45°
2026-05-08 11:57 57.92172 4.78377 32212 ft 476 kts 45°
2026-05-08 11:58 57.96871 4.87146 32178 ft 470 kts 45°
2026-05-08 11:58 57.99168 4.91448 31434 ft 464 kts 46°
2026-05-08 11:58 58.01442 4.95726 30724 ft 458 kts 46°
2026-05-08 11:59 58.05898 5.04122 29206 ft 446 kts 46°
2026-05-08 11:59 58.08055 5.08190 28434 ft 441 kts 46°
2026-05-08 11:59 58.10349 5.12003 27642 ft 436 kts 37°
2026-05-08 11:59 58.12917 5.14953 26652 ft 428 kts 25°
2026-05-08 12:00 58.15674 5.16866 25822 ft 416 kts 13°
2026-05-08 12:00 58.18501 5.17752 24891 ft 408 kts
2026-05-08 12:00 58.21314 5.17906 23973 ft 402 kts 359°
2026-05-08 12:00 58.24096 5.17943 22944 ft 397 kts 359°
2026-05-08 12:01 58.26838 5.17988 21958 ft 390 kts 359°
2026-05-08 12:01 58.29530 5.18049 21009 ft 384 kts 359°
2026-05-08 12:01 58.32180 5.18126 20105 ft 378 kts 359°
2026-05-08 12:01 58.34793 5.18214 19223 ft 373 kts 359°
2026-05-08 12:02 58.37370 5.18303 18354 ft 367 kts 359°
2026-05-08 12:02 58.39916 5.18392 17387 ft 362 kts 359°
2026-05-08 12:02 58.42386 5.18472 16476 ft 357 kts 359°
2026-05-08 12:02 58.44887 5.18554 15584 ft 352 kts 359°
2026-05-08 12:03 58.47301 5.18636 14756 ft 348 kts 359°
2026-05-08 12:03 58.49720 5.18720 14312 ft 346 kts 359°
2026-05-08 12:03 58.52118 5.18804 14031 ft 344 kts 359°
2026-05-08 12:03 58.54509 5.18887 13729 ft 344 kts 359°
2026-05-08 12:04 58.56847 5.18968 13298 ft 329 kts 359°
2026-05-08 12:04 58.59086 5.19046 12848 ft 315 kts 359°
2026-05-08 12:04 58.61240 5.19120 12340 ft 304 kts 359°
2026-05-08 12:04 58.63323 5.19193 11817 ft 295 kts 359°
2026-05-08 12:05 58.65316 5.19266 11303 ft 285 kts 360°
2026-05-08 12:05 58.67269 5.19338 10807 ft 277 kts 359°
2026-05-08 12:05 58.69173 5.19406 10306 ft 270 kts 359°
2026-05-08 12:05 58.71045 5.19471 9788 ft 268 kts 359°
2026-05-08 12:06 58.72891 5.19535 9245 ft 262 kts
2026-05-08 12:06 58.74725 5.19598 8718 ft 263 kts 360°
2026-05-08 12:06 58.76555 5.19662 8196 ft 262 kts
2026-05-08 12:06 58.78370 5.19725 7709 ft 260 kts
2026-05-08 12:07 58.80158 5.19786 7278 ft 255 kts
2026-05-08 12:07 58.81936 5.19848 6867 ft 255 kts
2026-05-08 12:07 58.83717 5.19911 6454 ft 256 kts
2026-05-08 12:07 58.85486 5.19974 6033 ft 254 kts
2026-05-08 12:08 58.87231 5.20036 5614 ft 251 kts
2026-05-08 12:08 58.88974 5.20110 5200 ft 249 kts
2026-05-08 12:08 58.90629 5.21007 4688 ft 249 kts 31°
2026-05-08 12:08 58.91944 5.23141 4359 ft 246 kts 50°
2026-05-08 12:09 58.93077 5.25615 4067 ft 246 kts 51°
2026-05-08 12:09 58.94209 5.28111 3803 ft 247 kts 50°
2026-05-08 12:09 58.95339 5.30557 3514 ft 246 kts 50°
2026-05-08 12:09 58.96483 5.33005 3203 ft 244 kts 50°
2026-05-08 12:10 58.97623 5.35431 2883 ft 243 kts 50°
2026-05-08 12:10 58.98759 5.37842 2582 ft 241 kts 50°
2026-05-08 12:10 58.99890 5.40234 2458 ft 239 kts 51°
2026-05-08 12:10 59.01007 5.42604 2456 ft 238 kts 50°
2026-05-08 12:11 59.02128 5.44981 2463 ft 239 kts 51°
2026-05-08 12:11 59.03245 5.47348 2473 ft 237 kts 51°
2026-05-08 12:11 59.04200 5.49941 2465 ft 234 kts 72°
2026-05-08 12:11 59.04385 5.52965 2345 ft 222 kts 102°
2026-05-08 12:12 59.03940 5.55743 2055 ft 213 kts 116°
2026-05-08 12:12 59.03394 5.58404 1960 ft 211 kts 115°
2026-05-08 12:12 59.02845 5.61068 1961 ft 212 kts 120°
2026-05-08 12:12 59.01893 5.63097 1969 ft 195 kts 154°
2026-05-08 12:13 59.00663 5.63624 2037 ft 168 kts 178°
2026-05-08 12:13 58.99682 5.63549 2040 ft 115 kts 181°
2026-05-08 12:13 58.98930 5.63496 1946 ft 106 kts 179°
2026-05-08 12:13 58.98197 5.63477 1841 ft 104 kts 178°
2026-05-08 12:14 58.97475 5.63487 1697 ft 104 kts 177°
2026-05-08 12:14 58.96742 5.63506 1547 ft 106 kts 176°
2026-05-08 12:14 58.96006 5.63527 1417 ft 105 kts 178°
2026-05-08 12:14 58.95282 5.63549 1304 ft 103 kts 178°
2026-05-08 12:15 58.94561 5.63571 1131 ft 104 kts 178°
2026-05-08 12:15 58.93836 5.63593 975 ft 104 kts 178°
2026-05-08 12:15 58.93119 5.63617 843 ft 102 kts 179°
2026-05-08 12:15 58.92402 5.63648 661 ft 104 kts 181°
2026-05-08 12:16 58.91674 5.63668 557 ft 106 kts 180°
2026-05-08 12:16 58.90946 5.63693 423 ft 103 kts 180°
2026-05-08 12:16 58.90233 5.63720 259 ft 103 kts 181°
2026-05-08 12:16 58.89524 5.63730 135 ft 103 kts 180°
2026-05-08 12:17 58.88818 5.63754 51 ft 96 kts 181°
2026-05-08 12:17 58.88242 5.63765 43 ft 63 kts 180°
2026-05-08 12:17 58.87962 5.63774 43 ft 36 kts 179°
2026-05-08 12:17 58.87851 5.63776 43 ft 6 kts 180°
2026-05-08 12:18 58.87764 5.63777 44 ft 20 kts 179°
2026-05-08 12:18 58.87656 5.63931 47 ft 24 kts 103°